Home   Weather   South Paris   Past weeks
Flag for USA

Past Weather in South Paris, Maine, USA — Yesterday and Last 2 Weeks

Now
66 °F

Mostly cloudy.


Feels Like: 66 °F
Forecast: 74 / 60 °F
Wind: 9 mph from Southeast

Location: Auburn-Lewiston

Current Time: Jul 5, 2020 at 3:55:08 pm

Latest Report: Jul 5, 2020 at 3:09 pm


Visibility: 10 mi

Pressure: 29.96 "Hg

Humidity: 94%

Dew Point: 64 °F

Location of South ParisLocation

Past Weather in South Paris — Graph

°F

South Paris Temperature Yesterday

Maximum temperature yesterday: 76 °F (at 1:56 pm)
Minimum temperature yesterday: 54 °F (at 5:39 am)
Average temperature yesterday: 62 °F

High & Low Weather Summary for the Past Weeks

 TemperatureHumidityPressure
High92 °F (Jun 20, 2:56 pm)100% (Jun 21, 1:56 am)30.04 "Hg (Jun 21, 1:56 am)
Low54 °F (Jun 25, 5:03 am)30% (Jun 25, 2:56 pm)29.66 "Hg (Jun 24, 4:44 pm)
Average67 °F88%29.88 "Hg
* Reported Jun 20 2:56 pm — Jul 5 2:33 pm, South Paris. Weather by CustomWeather, © 2020

Note: Actual official high and low records may vary slightly from our data, if they occured in-between our weather recording intervals... More about our weather records

South Paris Weather History for the Previous 24 Hours

Scroll right to see more
 ConditionsComfort  
Time TempWeatherWind HumidityBarometerVisibility
2:33 pm
Sun, Jul 5
68 °FOvercast.8 mph88%29.95 "Hg10 mi
1:56 pm69 °FOvercast.9 mph84%29.97 "Hg10 mi
1:07 pm70 °FOvercast.8 mph78%29.97 "Hg10 mi
12:56 pm68 °FOvercast.8 mph84%29.98 "Hg10 mi
12:24 pm66 °FOvercast.7 mph88%29.97 "Hg10 mi
11:56 am68 °FOvercast.7 mph84%29.99 "Hg10 mi
11:37 am68 °FOvercast.5 mph83%29.98 "Hg10 mi
10:56 am66 °FOvercast.6 mph87%29.98 "Hg10 mi
9:56 am64 °FLow clouds.3 mph94%30.00 "Hg10 mi
8:56 am63 °FFog.5 mph97%29.99 "Hg5 mi
7:56 am62 °FFog.6 mph100%29.99 "Hg4 mi
6:56 am62 °FLow clouds.3 mph100%29.98 "Hg10 mi
6:31 am63 °FLight rain. Fog.No wind100%29.96 "Hg3 mi
5:56 am62 °FLight rain. Fog.3 mph100%29.98 "Hg1 mi
5:17 am63 °FFog.No wind100%29.95 "Hg2 mi
4:56 am62 °FFog.5 mph96%29.95 "Hg4 mi
3:56 am61 °FFog.5 mph100%29.95 "Hg4 mi
3:33 am63 °FLight rain. Fog.3 mph94%29.94 "Hg3 mi
2:56 am61 °FFog.5 mph100%29.96 "Hg2 mi
2:23 am63 °FFog.5 mph100%29.95 "Hg2 mi
1:56 am62 °FFog.5 mph100%29.95 "Hg2 mi
1:13 am61 °FFog.No wind100%29.95 "Hg2 mi
12:56 am61 °FFog.3 mph100%29.96 "Hg1 mi
12:24 am61 °FFog.3 mph100%29.95 "Hg1 mi
12:11 am61 °FFog.3 mph100%29.96 "Hg1 mi
11:56 pm
Sat, Jul 4
61 °FFog.3 mph100%29.97 "Hg1 mi
10:56 pm61 °FFog.3 mph100%29.98 "Hg4 mi
10:10 pm61 °FFog.5 mph100%29.95 "Hg3 mi
9:22 pm61 °FLight rain. Fog.7 mph100%29.95 "Hg3 mi
8:56 pm61 °FFog.6 mph100%29.96 "Hg1 mi
7:56 pm61 °FLow clouds.8 mph100%29.95 "Hg8 mi
7:29 pm61 °FLow clouds.8 mph100%29.93 "Hg10 mi
6:56 pm63 °FLow clouds.6 mph93%29.93 "Hg10 mi
6:36 pm64 °FPartly sunny.7 mph88%29.91 "Hg10 mi
6:22 pm64 °FPassing clouds.9 mph88%29.91 "Hg10 mi
5:56 pm67 °FSunny.10 mph81%29.91 "Hg10 mi
4:56 pm71 °FSunny.8 mph76%29.91 "Hg10 mi
3:56 pm75 °FSunny.14 mph71%29.90 "Hg10 mi
Weather by CustomWeather, © 2020

See weather overview